Vorticity
6 8 8 6 6 5 4 5 7 7 7 6 5 6 6 5 4 5 6 7 6 6 6 6 5 4 4 4 4 4 4 4 3 4 4 5 5 4 4 4 4 5 5
5 6 5 3 4 4 4 5 6 6 5 5 5 4 4 4 3 4 3 4 4 5 5 6 6 7 7 7 6 5 5 6 7 7 7 6 5 6 6 5 5 6 5
4 5 5 4 4 4 4 4 4 5 6 7 7 8 8 7 7 8 9 8 7 7 7 7 7 7 8 8 8 7 8 8 8 7 7 6 7 6 6 6 7 4 4
4 3 4 3 3 5 7 7 7 7 6 7 7 7 7 6 5 4 4 3 2 3 5 4 4 4 5 7 7 8 7 7 7 7 7 6 6 6 6 8 4 4 7
4 4 4 4 4 5 5 5 4 4 4 5 4 5 5 5 5 5 5 5 5 6 6 6 7 7 6 5 6 6 5 6 6 6 6 7 6 6 6 5 5 8 6
4 3 4 4 5 6 5 3 4 4 4 4 3 3 3 4 6 7 7 6 7 7 6 7 7 7 8 8 7 6 7 8 7 8 7 7 7 7 7 7 7 6 6
4 4 3 4 5 4 4 5 3 2 3 3 2 3 6 7 6 5 6 6 6 5 7 8 7 7 6 6 5 6 6 6 8 7 8 9 8 7 7 7 6 5 5
2 3 4 5 4 4 4 4 3 1 2 5 5 6 6 6 6 7 7 7 7 6 6 7 7 7 7 6 8 8 9 7 5 7 6 6 5 4 5 5 5 5 5
3 5 4 4 4 3 3 3 2 4 5 6 7 6 6 6 6 6 6 6 7 7 7 7 7 7 7 7 6 6 4 4 5 4 5 3 4 5 5 6 6 6 7
7 5 4 4 2 3 2 2 4 6 6 7 7 6 7 7 6 6 6 7 7 6 6 6 7 6 6 6 6 6 6 5 5 6 6 6 6 6 5 5 5 6 7
5 3 2 3 3 1 2 6 5 6 7 7 6 6 6 5 6 6 7 7 6 7 7 6 6 6 6 6 6 7 6 7 7 5 5 6 6 6 4 6 5 7 10
3 3 3 3 3 5 6 6 6 6 6 6 5 4 4 6 7 7 7 7 7 7 7 7 7 6 6 6 6 6 6 6 7 8 9 8 10 9 11 9 8 5 6
3 3 5 5 6 6 6 6 6 6 5 4 4 4 6 6 6 6 8 9 8 7 7 7 6 5 5 6 6 6 6 7 8 9 9 9 8 6 7 8 2 6 6
5 5 6 6 6 5 5 5 5 4 4 5 6 6 5 5 6 6 7 8 9 8 7 7 6 6 5 5 6 6 6 6 7 9 5 7 7 7 6 4 7 8 13
6 6 6 5 5 5 6 5 5 5 6 5 5 5 5 5 5 5 6 7 6 9 7 7 6 6 5 6 6 5 6 7 7 9 7 7 6 5 5 7 10 10 7
5 5 5 5 5 5 6 6 6 6 4 7 4 6 7 8 8 8 8 5 5 5 7 7 6 6 6 6 6 6 7 6 7 7 8 6 6 5 7 9 10 6 6
5 5 6 6 4 5 5 5 5 5 6 5 5 6 7 6 6 6 7 6 5 5 3 6 7 6 6 5 5 5 6 6 6 7 8 7 6 6 7 11 6 5 4
5 5 4 3 5 5 5 4 5 5 4 5 4 4 5 6 5 6 4 5 7 6 5 2 1 4 4 4 5 6 6 6 7 5 7 8 6 5 6 10 6 3 1
5 5 4 5 7 5 6 5 4 3 4 4 4 3 4 3 4 6 1 9 3 10 8 8 7 5 3 4 4 3 5 4 6 6 6 7 5 5 4 6 6 4 4
3 6 8 7 6 5 4 4 5 5 6 5 6 6 6 6 8 8 7 5 5 3 6 9 6 7 6 3 1 4 6 5 4 7 5 7 4 4 4 5 3 5 7
5 3 4 5 5 4 6 6 5 5 4 5 4 4 5 6 7 6 6 8 4 8 4 3 6 6 4 6 6 2 5 5 6 5 8 6 4 4 4 2 6 4 6
5 5 8 9 8 6 5 6 5 5 5 6 5 5 6 5 5 6 6 7 9 5 8 7 6 10 12 6 7 6 5 4 5 7 7 6 5 4 4 3 4 5 6
6 7 8 6 6 6 5 5 5 5 6 8 10 6 7 7 7 8 5 8 9 6 9 8 9 4 7 5 11 13 9 11 8 8 9 4 9 6 6 4 3 17 5
12 13 10 9 8 7 6 6 6 8 7 7 9 9 8 8 7 4 4 6 6 10 9 5 6 9 5 4 4 5 2 9 11 1 7 7 3 10 7 6 3 30 8
8 9 8 7 7 6 6 8 9 9 9 8 7 8 9 8 9 12 11 11 8 6 4 9 8 9 8 8 7 7 6 8 9 9 4 11 8 -2 3 4 4 6 7
7 8 8 7 7 8 8 9 10 8 6 7 7 8 9 9 10 7 6 8 10 10 8 7 7 7 10 9 5 4 8 6 11 5 12 13 7 5 6 7 5 5 24
Height
5882 5884 5884 5886 5886 5887 5888 5890 5890 5891 5892 5893 5893 5894 5894 5894 5893 5893 5894 5894 5894 5894 5893 5893 5893 5892 5892 5892 5891 5891 5890 5890 5889 5889 5888 5888 5888 5887 5887 5886 5885 5884 5883
5879 5881 5882 5884 5885 5886 5888 5889 5890 5890 5891 5891 5892 5892 5892 5892 5892 5892 5892 5892 5892 5892 5892 5891 5891 5890 5890 5889 5889 5888 5887 5886 5886 5887 5886 5886 5885 5884 5884 5883 5883 5882 5881
5878 5880 5882 5883 5885 5886 5887 5888 5889 5889 5890 5890 5890 5890 5890 5890 5890 5890 5890 5890 5890 5890 5889 5890 5889 5888 5888 5887 5887 5886 5886 5885 5884 5883 5883 5883 5882 5882 5881 5881 5880 5879 5878
5877 5879 5880 5882 5883 5885 5885 5886 5887 5887 5887 5887 5887 5887 5888 5888 5888 5888 5888 5888 5888 5887 5887 5887 5887 5886 5885 5885 5884 5884 5883 5883 5883 5882 5881 5880 5879 5878 5878 5877 5876 5876 5875
5874 5877 5878 5880 5881 5883 5883 5883 5884 5884 5885 5885 5885 5886 5886 5886 5886 5886 5885 5885 5885 5884 5884 5884 5884 5884 5883 5882 5881 5880 5880 5879 5879 5879 5878 5877 5877 5876 5875 5874 5874 5873 5873
5872 5874 5876 5877 5878 5879 5881 5881 5881 5881 5882 5883 5883 5883 5883 5883 5883 5883 5883 5882 5881 5881 5881 5881 5880 5880 5879 5879 5878 5878 5877 5877 5876 5875 5874 5874 5873 5872 5871 5872 5871 5870 5870
5871 5870 5872 5873 5874 5876 5878 5878 5879 5880 5880 5880 5880 5881 5881 5881 5880 5881 5880 5879 5879 5878 5878 5878 5877 5876 5876 5876 5875 5874 5874 5873 5873 5873 5871 5871 5871 5870 5869 5869 5868 5868 5867
5867 5867 5868 5870 5871 5872 5874 5876 5876 5877 5878 5878 5877 5877 5878 5878 5878 5877 5877 5877 5876 5876 5875 5875 5874 5873 5873 5873 5872 5871 5871 5871 5870 5869 5869 5869 5868 5867 5866 5866 5865 5864 5864
5863 5864 5865 5867 5868 5869 5871 5872 5873 5874 5875 5875 5875 5875 5875 5875 5875 5875 5874 5874 5873 5873 5872 5872 5871 5870 5870 5869 5869 5868 5867 5867 5866 5866 5865 5865 5864 5863 5863 5862 5861 5860 5859
5858 5860 5862 5864 5866 5867 5868 5868 5869 5870 5871 5871 5872 5872 5872 5872 5872 5872 5872 5871 5870 5869 5868 5868 5868 5867 5866 5865 5865 5864 5863 5863 5863 5862 5862 5861 5861 5859 5857 5857 5857 5856 5855
5854 5858 5859 5861 5862 5864 5865 5865 5865 5865 5866 5867 5868 5869 5869 5868 5868 5868 5868 5867 5866 5866 5865 5864 5864 5863 5862 5861 5860 5859 5859 5859 5858 5858 5857 5857 5856 5855 5853 5852 5851 5851 5850
5850 5853 5856 5857 5858 5859 5861 5860 5860 5861 5861 5863 5863 5862 5863 5864 5865 5865 5864 5863 5862 5862 5861 5861 5860 5859 5857 5857 5856 5856 5855 5854 5854 5854 5852 5851 5850 5849 5848 5847 5847 5846 5844
5846 5849 5850 5851 5853 5854 5855 5855 5857 5857 5858 5858 5858 5859 5859 5861 5861 5861 5860 5860 5859 5858 5857 5856 5855 5854 5853 5852 5852 5851 5850 5849 5849 5850 5847 5846 5846 5844 5843 5843 5842 5841 5840
5842 5844 5845 5846 5848 5849 5849 5851 5851 5853 5853 5855 5854 5855 5855 5856 5856 5856 5856 5855 5854 5853 5853 5852 5851 5849 5848 5847 5848 5847 5845 5844 5844 5845 5842 5842 5841 5840 5839 5838 5837 5836 5835
5838 5838 5840 5842 5843 5844 5845 5846 5848 5848 5850 5849 5851 5851 5850 5850 5850 5850 5850 5850 5849 5849 5848 5847 5846 5845 5844 5843 5842 5841 5840 5840 5839 5840 5838 5837 5836 5835 5834 5833 5832 5831 5830
5833 5834 5835 5837 5838 5839 5840 5842 5842 5844 5844 5845 5845 5845 5844 5845 5844 5844 5844 5845 5844 5843 5843 5842 5841 5840 5839 5839 5837 5837 5836 5835 5833 5834 5835 5831 5831 5830 5829 5828 5828 5827 5826
5827 5829 5832 5831 5832 5834 5836 5836 5837 5838 5839 5840 5839 5839 5839 5839 5838 5837 5837 5838 5838 5836 5837 5836 5835 5835 5833 5833 5832 5831 5830 5829 5829 5828 5829 5827 5825 5825 5824 5824 5823 5822 5821
5822 5825 5825 5826 5828 5829 5830 5831 5832 5832 5834 5834 5834 5833 5833 5832 5831 5831 5831 5830 5830 5829 5828 5829 5827 5827 5826 5826 5825 5825 5824 5823 5822 5822 5823 5823 5821 5819 5819 5818 5818 5817 5816
5815 5817 5819 5820 5823 5824 5826 5828 5827 5826 5826 5826 5826 5826 5826 5825 5825 5824 5823 5823 5823 5823 5821 5821 5821 5819 5817 5817 5817 5817 5817 5816 5815 5815 5815 5815 5815 5814 5813 5812 5811 5810 5809
5810 5812 5813 5814 5815 5817 5818 5819 5820 5820 5820 5819 5818 5818 5817 5817 5818 5816 5815 5814 5813 5814 5813 5812 5811 5810 5809 5808 5808 5808 5809 5807 5807 5808 5807 5806 5806 5807 5807 5804 5804 5803 5802
5803 5804 5806 5808 5809 5810 5811 5812 5813 5815 5813 5811 5810 5809 5808 5808 5808 5806 5805 5805 5803 5803 5802 5801 5801 5800 5799 5797 5797 5798 5798 5798 5799 5799 5798 5798 5797 5796 5798 5797 5795 5794 5793
5795 5797 5799 5801 5802 5803 5804 5804 5804 5804 5807 5807 5803 5801 5800 5797 5796 5797 5797 5795 5793 5793 5792 5791 5790 5789 5788 5785 5785 5785 5786 5788 5788 5788 5788 5788 5787 5787 5787 5788 5786 5786 5784
5787 5789 5791 5793 5794 5796 5796 5797 5796 5795 5794 5797 5797 5793 5790 5788 5786 5785 5786 5785 5784 5781 5780 5779 5779 5778 5777 5775 5774 5772 5772 5775 5775 5776 5775 5776 5776 5777 5775 5776 5776 5775 5775
5779 5781 5783 5785 5787 5788 5788 5789 5788 5787 5786 5785 5786 5785 5782 5780 5777 5774 5773 5773 5771 5771 5769 5766 5765 5765 5764 5764 5761 5763 5760 5761 5762 5763 5763 5763 5763 5765 5764 5764 5764 5763 5763
5771 5773 5775 5777 5778 5779 5780 5780 5779 5779 5777 5776 5775 5774 5773 5772 5769 5765 5762 5760 5760 5757 5755 5754 5751 5750 5750 5749 5749 5749 5748 5748 5750 5750 5751 5751 5751 5752 5752 5752 5752 5752 5751
5763 5765 5766 5768 5769 5770 5771 5770 5769 5769 5768 5767 5764 5763 5761 5759 5757 5755 5753 5749 5746 5745 5743 5741 5736 5734 5734 5734 5735 5735 5735 5734 5735 5736 5737 5738 5738 5739 5739 5740 5740 5739 5739